Terug naar catalogus

ATLAS 75E R/B

ActiefHEO
NORAD 14190·ROCKET BODY·🇺🇸 United States

Gelanceerd Jul 14, 1983 vanaf Vandenberg Space Force Base

Loading…

Volgende Passages (komende 24 uur)

TLE

VersSource: Space-Track

Epoch: Sep 13, 2026, 08:54 UTC

1 14190U 83072B   26256.37123610 -.00000005  00000-0  36169-2 0  9992
2 14190  64.2990 280.2673 5488416 330.6152   7.4321  3.86839956610125

Volg ATLAS 75E R/B in realtime met AllMySat

Download on the App Store